Location: Bonnesvalyn
(49.1218°N, 3.3177°E)
Time: 23:10:32
(UTC+00:00)

COSMOS 2428 - Pass Details

Date: 09 February 2023
Orbit: 843 x 858 km, 70.9° (Epoch: 21 March)

Event Time Altitude Azimuth Distance (km) Brightness Sun altitude
Rises 18:55:51 0° 212° (SSW) 3,390 6.3 -19.9°
Reaches altitude 10° 18:58:18 10° 215° (SW) 2,459 5.5 -20.3°
Maximum altitude 19:03:56 74° 300° (WNW) 881 2.8 -21.2°
Enters shadow 19:09:12 12° 25° (NNE) 2,314 4.8 -22.1°
